Regional Weather Roundup
Issued by NWS

Home | Current Version | Previous Version | Graphics & Text | Print | Product List | Glossary On
Versions: 1 2 3 4 5 6 7 8 9 10 11 12 13 14 15 16 17 18 19 20 21 22 23 24 25 26 27 28 29 30 31 32 33 34 35 36 37 38 39 40 41 42 43 44 45 46 47 48 49 50
000
ASUS43 KLMK 251602
RWRKY
KENTUCKY REGIONAL WEATHER ROUNDUP
NATIONAL WEATHER SERVICE LOUISVILLE KY
1100 AM EST THU DEC 25 2014

NOTE "FAIR" INDICATES FEW OR NO CLOUDS BELOW 12,000 FEET
WITH NO SIGNIFICANT WEATHER AND/OR OBSTRUCTIONS TO VISIBILITY.

KYZ001>023-026-027-061>063-070>075-251700-
WESTERN AND SOUTH CENTRAL KENTUCKY

CITY           SKY/WX    TMP DP  RH WIND       PRES   REMARKS
PADUCAH        SUNNY     44  34  67 SW15      30.15R
HENDERSON      MOSUNNY   43  30  61 SW14G20   30.15R
OWENSBORO      PTSUNNY   43  34  70 SW14      30.17R
HOPKINSVILLE   PTSUNNY   42  33  69 SW12      30.19R
BOWLING GREEN  CLOUDY    42  34  73 SW10      30.21R
GLASGOW        NOT AVBL
$$

KYZ024-025-028>034-038-045-046-053-251700-
NORTH CENTRAL KENTUCKY

CITY           SKY/WX    TMP DP  RH WIND       PRES   REMARKS
LOUISVILLE/SDF CLOUDY    42  32  67 SW10      30.17R
LOUISVILLE/LOU CLOUDY    41  31  67 SW8       30.16R
FORT KNOX      CLOUDY    40  33  74 SW12      30.15R WCI  33
$$

KYZ035>037-039>044-047>052-055>060-089>105-251700-
NORTHEAST KENTUCKY

CITY           SKY/WX    TMP DP  RH WIND       PRES   REMARKS
LEXINGTON      CLOUDY    39  30  70 SW12      30.16R WCI  32
COVINGTON      CLOUDY    39  30  70 W8        30.12R WCI  33
FRANKFORT      CLOUDY    39  32  76 SW7G17    30.15R WCI  34
$$

KYZ054-064>069-076>088-106>120-251700-
SOUTHEAST KENTUCKY

CITY           SKY/WX    TMP DP  RH WIND       PRES   REMARKS
JACKSON        CLOUDY    39  34  82 CALM      30.15R
LONDON         CLOUDY    40  31  70 SW9       30.18R WCI  34
SOMERSET       NOT AVBL
MIDDLESBORO    PTSUNNY   42  32  69 SW5       30.19R
MONTICELLO     CLOUDY    41  34  76 SW12      30.22R
$$




USA.gov is the U.S. government's official web portal to all federal, state and local government web resources and services.